ITY4226 LIRF-GOBD

Flight info

Callsign ITY4226
Flight time N/A
Altitude 19000
Route ESINO Z924 ABIDU/N0456F350 DCT ADRUX DCT KOLUS DCT GOKMI DCT SUPUX DCT ETOIL DCT REQIN UG26 ZEM/N0461F340 UG26 ALR/N0456F360 UG26 CHE UA411 FES/N0461F350 UM372 SODSA/N0455F370 UM372 DIDOV DCT ECHED/N0461F360 UR975 BIMOG/N0454F380 UR975 ZRT DCT MINBA DCT SEPEL UR975 SAKLI SAKLI1G
Aircraft A319/M-SDE3FGHIRWY/LB1

Departure

Time 2026-05-04 07:04
Airport Rome–Fiumicino Leonardo da Vinci International Airport (LIRF)

Arrival

Time N/A
Airport Blaise Diagne International Airport (GOBD)
Time Latitude Longitude Altitude Speed Heading
2026-05-04 06:18 41.79682 12.25457 14 ft 0 kts 115°
2026-05-04 06:18 41.79681 12.25461 16 ft 0 kts 115°
2026-05-04 06:53 41.79685 12.25449 14 ft 4 kts 114°
2026-05-04 06:53 41.79697 12.25417 16 ft 4 kts 133°
2026-05-04 06:53 41.79713 12.25402 14 ft 4 kts 149°
2026-05-04 06:53 41.79728 12.25379 14 ft 4 kts 100°
2026-05-04 06:54 41.79730 12.25371 14 ft 4 kts 94°
2026-05-04 06:54 41.79736 12.25404 14 ft 4 kts 62°
2026-05-04 06:54 41.79756 12.25422 14 ft 2 kts 25°
2026-05-04 06:54 41.79779 12.25437 15 ft 4 kts 25°
2026-05-04 06:55 41.79789 12.25443 14 ft 0 kts 25°
2026-05-04 06:57 41.79992 12.25634 14 ft 11 kts 109°
2026-05-04 06:58 41.79959 12.25727 14 ft 11 kts 116°
2026-05-04 06:58 41.79956 12.25738 14 ft 11 kts 115°
2026-05-04 06:58 41.79946 12.25765 14 ft 11 kts 115°
2026-05-04 06:58 41.79946 12.25862 15 ft 12 kts 46°
2026-05-04 06:59 41.80027 12.25917 14 ft 15 kts 24°
2026-05-04 06:59 41.80120 12.25974 14 ft 15 kts 25°
2026-05-04 06:59 41.80213 12.26032 15 ft 15 kts 25°
2026-05-04 06:59 41.80305 12.26089 16 ft 14 kts 24°
2026-05-04 07:01 41.80610 12.26128 16 ft 0 kts 343°
2026-05-04 07:02 41.80613 12.26127 16 ft 2 kts 343°
2026-05-04 07:02 41.80650 12.26112 18 ft 7 kts 343°
2026-05-04 07:02 41.80688 12.26096 18 ft 4 kts 342°
2026-05-04 07:03 41.80698 12.26091 18 ft 0 kts 342°
2026-05-04 07:03 41.80715 12.26074 19 ft 7 kts 301°
2026-05-04 07:03 41.80667 12.25873 18 ft 56 kts 249°
2026-05-04 07:03 41.80440 12.25052 18 ft 130 kts 250°
2026-05-04 07:04 41.80064 12.23680 232 ft 166 kts 249°
2026-05-04 07:04 41.79663 12.22254 994 ft 162 kts 247°
2026-05-04 07:04 41.79321 12.20838 1704 ft 164 kts 259°
2026-05-04 07:04 41.79266 12.19265 2149 ft 177 kts 265°
2026-05-04 07:05 41.79223 12.17517 2418 ft 198 kts 265°
2026-05-04 07:05 41.79039 12.15650 2857 ft 205 kts 248°
2026-05-04 07:05 41.78292 12.14048 3400 ft 204 kts 223°
2026-05-04 07:05 41.77248 12.12745 3961 ft 207 kts 220°
2026-05-04 07:06 41.75148 12.10092 5188 ft 216 kts 227°
2026-05-04 07:06 41.74316 12.08274 5423 ft 242 kts 238°
2026-05-04 07:06 41.73448 12.06228 5780 ft 261 kts 238°
2026-05-04 07:07 41.72533 12.04093 6481 ft 267 kts 238°
2026-05-04 07:08 41.65715 11.88282 10657 ft 321 kts 238°
2026-05-04 07:09 41.64557 11.85608 10782 ft 343 kts 238°
2026-05-04 07:09 41.63331 11.82765 10967 ft 361 kts 239°
2026-05-04 07:09 41.62066 11.79824 11448 ft 368 kts 239°
2026-05-04 07:09 41.60779 11.76832 11990 ft 373 kts 238°
2026-05-04 07:10 41.59474 11.73808 12560 ft 378 kts 238°
2026-05-04 07:10 41.58153 11.70754 13132 ft 382 kts 238°
2026-05-04 07:12 41.48594 11.48802 17208 ft 394 kts 239°
2026-05-04 07:12 41.47211 11.45633 17758 ft 396 kts 239°
2026-05-04 07:12 41.45843 11.42496 18290 ft 397 kts 240°
2026-05-04 07:12 41.44450 11.39306 18764 ft 399 kts 240°
2026-05-04 07:13 41.43045 11.36106 19181 ft 401 kts 240°
2026-05-04 07:13 41.41630 11.32887 19561 ft 404 kts 240°
2026-05-04 07:13 41.40205 11.29648 19940 ft 407 kts 240°
2026-05-04 07:14 41.34391 11.16471 21435 ft 417 kts 240°
2026-05-04 07:14 41.32921 11.13141 21804 ft 419 kts 240°
2026-05-04 07:15 41.31435 11.09787 22165 ft 421 kts 240°
2026-05-04 07:15 41.29942 11.06422 22524 ft 424 kts 240°
2026-05-04 07:15 41.28444 11.03041 22884 ft 425 kts 240°
2026-05-04 07:15 41.26938 10.99645 23224 ft 428 kts 240°
2026-05-04 07:16 41.25423 10.96230 23556 ft 430 kts 240°
2026-05-04 07:16 41.23899 10.92803 23830 ft 432 kts 240°
2026-05-04 07:16 41.22361 10.89352 24109 ft 435 kts 240°
2026-05-04 07:16 41.20816 10.85894 24397 ft 436 kts 240°
2026-05-04 07:17 41.19285 10.82473 24683 ft 437 kts 240°
2026-05-04 07:17 41.17729 10.78995 24973 ft 438 kts 240°
2026-05-04 07:17 41.16174 10.75511 25251 ft 439 kts 240°
2026-05-04 07:17 41.14613 10.72016 25526 ft 441 kts 240°
2026-05-04 07:18 41.13050 10.68512 25808 ft 442 kts 240°
2026-05-04 07:18 41.11480 10.65002 26081 ft 443 kts 240°
2026-05-04 07:18 41.09901 10.61487 26344 ft 444 kts 240°
2026-05-04 07:18 41.08314 10.57966 26606 ft 445 kts 240°
2026-05-04 07:19 41.06722 10.54445 26894 ft 445 kts 241°
2026-05-04 07:19 41.05132 10.50930 27245 ft 444 kts 241°
2026-05-04 07:19 41.03550 10.47440 27661 ft 441 kts 241°
2026-05-04 07:19 41.01976 10.43966 28053 ft 439 kts 241°
2026-05-04 07:20 41.00412 10.40506 28430 ft 437 kts 242°
2026-05-04 07:20 40.98922 10.37017 28816 ft 434 kts 246°
2026-05-04 07:20 40.97789 10.33330 29184 ft 431 kts 251°
2026-05-04 07:20 40.96736 10.29628 29574 ft 429 kts 251°